Date String (YYYY-MM-DD hh:mm:ss) UTC,Instrument flags,Ambient pressure (hPa),Sample flow (lpm),Bypass flow (lpm),Sample temperature (°C),Ambient temperature (°C),ASC tube jacket temperature (°C),LED temperature (°C),Box temperature (°C),Sample RH (%),Span deviation,Mass concentration (μg/m³),Mass concentration (μg/m³),Mass concentration (μg/m³)
DateTimeUTC,F1_M11,P_M11,Q1_M11,Q2_M11,T1_M11,T2_M11,T3_M11,T4_M11,T5_M11,U1_M11,ZSPAN_M11,X0_M11,X2_M11,X1_M11
2022-03-26 22:00:00,,0822.0,4.99,0.00,29.7,25.4,00.0,38.8,31.0,07.6,0000.0,0007.90,0002.73,0001.29
2022-03-26 22:01:00,,0822.0,5.00,0.00,29.6,25.7,00.0,38.7,31.0,07.6,0000.0,0007.75,0002.78,0001.28
2022-03-26 22:02:00,,0822.0,5.01,0.00,29.6,26.2,00.0,38.7,31.1,07.8,0000.0,0007.80,0002.80,0001.28
2022-03-26 22:03:00,,0822.0,5.01,0.00,29.5,26.7,00.0,38.6,31.1,07.8,0000.0,0007.97,0002.87,0001.27
2022-03-26 22:04:00,,0822.0,4.98,0.00,29.5,27.1,00.0,38.6,31.2,07.7,0000.0,0007.69,0002.80,0001.27
2022-03-26 22:05:00,,0822.0,5.01,0.00,29.6,27.5,00.0,38.6,31.3,07.8,0000.0,0007.52,0002.74,0001.28
2022-03-26 22:06:00,,0821.8,4.99,0.00,29.6,27.8,00.0,38.6,31.4,07.6,0000.0,0007.57,0002.77,0001.26
2022-03-26 22:07:00,,0821.9,5.00,0.00,29.6,28.0,00.0,38.6,31.4,07.8,0000.0,0007.75,0002.70,0001.22
2022-03-26 22:08:00,,0821.9,5.02,0.00,29.6,28.2,00.0,38.6,31.4,07.7,0000.0,0007.46,0002.65,0001.20
2022-03-26 22:09:00,,0822.0,4.99,0.00,29.7,28.4,00.0,38.6,31.4,07.4,0000.0,0007.57,0002.68,0001.20
2022-03-26 22:10:00,,0822.0,5.01,0.00,29.7,28.5,00.0,38.6,31.5,07.5,0000.0,0007.66,0002.73,0001.20
2022-03-26 22:11:00,,0822.0,4.99,0.00,29.7,28.6,00.0,38.6,31.5,07.9,0000.0,0007.55,0002.70,0001.20
2022-03-26 22:12:00,,0822.0,5.00,0.00,29.8,28.7,00.0,38.6,31.6,07.8,0000.0,0007.54,0002.70,0001.22
2022-03-26 22:13:00,,0822.1,5.02,0.00,29.8,28.8,00.0,38.6,31.6,07.8,0000.0,0007.54,0002.66,0001.23
2022-03-26 22:14:00,,0822.0,4.99,0.00,29.8,28.9,00.0,38.7,31.7,07.5,0000.0,0007.58,0002.58,0001.23
2022-03-26 22:15:00,,0822.1,5.00,0.00,29.9,28.9,00.0,38.7,31.7,07.5,0000.0,0007.68,0002.57,0001.21
2022-03-26 22:16:00,,0822.0,5.02,0.00,29.9,29.0,00.0,38.7,31.7,07.6,0000.0,0007.81,0002.65,0001.22
2022-03-26 22:17:00,,0822.0,4.99,0.00,29.9,29.1,00.0,38.7,31.8,07.5,0000.0,0007.79,0002.65,0001.22
2022-03-26 22:18:00,,0821.9,4.99,0.00,30.0,29.1,00.0,38.8,31.8,07.7,0000.0,0007.23,0002.68,0001.23
2022-03-26 22:19:00,,0821.9,5.01,0.00,30.0,28.3,00.0,38.8,31.6,07.5,0000.0,0006.88,0002.68,0001.24
2022-03-26 22:20:00,,0821.9,5.00,0.00,29.8,26.0,00.0,38.8,31.1,07.6,0000.0,0006.68,0002.66,0001.25
2022-03-26 22:21:00,,0821.9,4.99,0.00,29.7,25.4,00.0,38.8,30.9,07.9,0000.0,0006.43,0002.58,0001.23
2022-03-26 22:22:00,,0821.9,5.00,0.00,29.6,25.8,00.0,38.7,31.0,08.0,0000.0,0006.62,0002.55,0001.21
2022-03-26 22:23:00,,0821.8,5.00,0.00,29.6,26.3,00.0,38.7,31.1,07.8,0000.0,0006.78,0002.57,0001.20
2022-03-26 22:24:00,,0822.0,4.99,0.00,29.5,26.8,00.0,38.6,31.2,07.8,0000.0,0006.70,0002.57,0001.18
2022-03-26 22:25:00,,0821.9,5.01,0.00,29.5,27.2,00.0,38.6,31.2,07.8,0000.0,0006.60,0002.64,0001.19
2022-03-26 22:26:00,,0821.8,5.00,0.00,29.6,27.6,00.0,38.6,31.3,07.7,0000.0,0006.63,0002.68,0001.20
2022-03-26 22:27:00,,0821.8,5.00,0.00,29.6,27.9,00.0,38.6,31.3,07.6,0000.0,0006.61,0002.65,0001.19
2022-03-26 22:28:00,,0821.9,5.01,0.00,29.6,28.1,00.0,38.6,31.4,07.5,0000.0,0006.49,0002.59,0001.20
2022-03-26 22:29:00,,0822.0,4.99,0.00,29.6,28.3,00.0,38.6,31.4,07.4,0000.0,0006.37,0002.61,0001.20
2022-03-26 22:30:00,,0821.9,5.02,0.00,29.7,28.5,00.0,38.6,31.5,07.7,0000.0,0006.19,0002.57,0001.19
2022-03-26 22:31:00,,0821.9,5.00,0.00,29.7,28.6,00.0,38.6,31.5,07.6,0000.0,0006.32,0002.58,0001.19
2022-03-26 22:32:00,,0821.9,4.99,0.00,29.8,28.7,00.0,38.6,31.6,07.6,0000.0,0006.66,0002.60,0001.21
2022-03-26 22:33:00,,0822.0,4.99,0.00,29.8,28.8,00.0,38.6,31.6,07.3,0000.0,0007.00,0002.70,0001.22
2022-03-26 22:34:00,,0821.9,5.01,0.00,29.8,28.9,00.0,38.7,31.7,07.2,0000.0,0007.39,0002.69,0001.23
2022-03-26 22:35:00,,0821.9,4.99,0.00,29.9,29.0,00.0,38.7,31.7,07.4,0000.0,0007.20,0002.62,0001.23
2022-03-26 22:36:00,,0821.9,5.00,0.00,29.9,29.1,00.0,38.7,31.8,07.4,0000.0,0007.04,0002.57,0001.23
2022-03-26 22:37:00,,0821.9,5.01,0.00,30.0,29.1,00.0,38.7,31.8,07.5,0000.0,0006.78,0002.50,0001.22
2022-03-26 22:38:00,,0822.0,4.99,0.00,30.0,29.1,00.0,38.8,31.9,07.4,0000.0,0006.61,0002.49,0001.23
2022-03-26 22:39:00,,0821.9,4.99,0.00,30.0,27.8,00.0,38.8,31.6,07.6,0000.0,0006.62,0002.53,0001.24
2022-03-26 22:40:00,,0821.8,5.01,0.00,29.9,26.5,00.0,38.8,31.3,07.5,0000.0,0006.67,0002.50,0001.23
2022-03-26 22:41:00,,0821.9,4.99,0.00,29.8,26.7,00.0,38.8,31.3,07.8,0000.0,0006.78,0002.52,0001.23
2022-03-26 22:42:00,,0821.8,5.01,0.00,29.7,27.0,00.0,38.7,31.3,07.7,0000.0,0006.60,0002.48,0001.22
2022-03-26 22:43:00,,0821.8,5.00,0.00,29.7,27.4,00.0,38.7,31.4,07.5,0000.0,0006.34,0002.45,0001.21
2022-03-26 22:44:00,,0821.9,4.99,0.00,29.7,27.7,00.0,38.7,31.4,07.5,0000.0,0006.03,0002.43,0001.21
2022-03-26 22:45:00,,0821.8,5.02,0.00,29.8,28.0,00.0,38.7,31.5,07.3,0000.0,0005.52,0002.45,0001.21
2022-03-26 22:46:00,,0821.8,4.99,0.00,29.8,28.3,00.0,38.7,31.6,07.3,0000.0,0005.68,0002.51,0001.21
2022-03-26 22:47:00,,0821.7,5.01,0.00,29.8,28.5,00.0,38.7,31.6,07.2,0000.0,0005.70,0002.51,0001.20
2022-03-26 22:48:00,,0821.8,4.98,0.00,29.8,28.6,00.0,38.7,31.6,07.4,0000.0,0005.98,0002.56,0001.19
2022-03-26 22:49:00,,0821.8,5.00,0.00,29.9,28.7,00.0,38.7,31.7,07.3,0000.0,0005.87,0002.51,0001.18
2022-03-26 22:50:00,,0821.9,5.01,0.00,29.9,28.9,00.0,38.7,31.7,07.3,0000.0,0005.76,0002.43,0001.16
2022-03-26 22:51:00,,0821.8,5.00,0.00,29.9,29.0,00.0,38.8,31.7,07.5,0000.0,0005.74,0002.45,0001.17
2022-03-26 22:52:00,,0821.9,4.99,0.00,30.0,28.9,00.0,38.8,31.7,07.5,0000.0,0006.38,0002.46,0001.18
2022-03-26 22:53:00,,0821.9,5.01,0.00,29.9,27.3,00.0,38.8,31.5,07.6,0000.0,0006.53,0002.46,0001.20
2022-03-26 22:54:00,,0821.9,4.99,0.00,29.8,25.4,00.0,38.8,31.1,07.5,0000.0,0006.45,0002.46,0001.21
2022-03-26 22:55:00,,0821.8,5.02,0.00,29.7,25.4,00.0,38.7,31.0,07.8,0000.0,0006.38,0002.48,0001.21
2022-03-26 22:56:00,,0822.0,4.99,0.00,29.6,25.9,00.0,38.7,31.0,07.9,0000.0,0006.39,0002.46,0001.21
2022-03-26 22:57:00,,0821.8,4.99,0.00,29.5,26.4,00.0,38.6,31.1,07.8,0000.0,0006.41,0002.47,0001.23
2022-03-26 22:58:00,,0821.8,5.01,0.00,29.5,26.9,00.0,38.6,31.2,07.9,0000.0,0006.56,0002.45,0001.23
2022-03-26 22:59:00,,0821.8,5.01,0.00,29.5,27.3,00.0,38.6,31.2,07.8,0000.0,0006.79,0002.43,0001.24
